This demonstration page uses our WeatherBlox Daily Observations layout. Learn more.

Left ArrowRight Arrow

40.92945, -100.16068

Hourly Observations for October 18, 2018

Temp ( °F °C ) Dew Point ( °F °C ) Humidity (%) Winds ( mph kmh ) Pressure ( in mb ) Visibility ( mi km ) Precip ( " mm )
12:15 am 00:15 Clear 47 8.3 37 2.9 69 69 S 7 11 30.42 1030 10 16.0934 0 0
12:35 am 00:35 Clear 47 8.3 37 3 70 70 S 6 9 30.42 1030 10 16.0934 0 0
12:55 am 00:55 Clear 47 8.5 38 3.3 70 70 SSW 7 11 30.42 1030 10 16.0934 0 0
1:15 am 01:15 Clear 49 9.5 38 3.5 66 66 SSW 9 15 30.42 1030 10 16.0934 0 0
1:35 am 01:35 Clear 49 9.2 38 3.3 67 67 SSW 9 15 30.42 1030 10 16.0934 0 0
1:55 am 01:55 Clear 47 8.5 37 3 69 69 S 8 13 30.42 1030 10 16.0934 0 0
2:15 am 02:15 Clear 48 8.7 38 3.3 69 69 SSW 7 11 30.42 1030 10 16.0934 0 0
2:35 am 02:35 Clear 48 8.8 38 3.5 70 70 SSW 9 15 30.42 1030 10 16.0934 0 0
2:55 am 02:55 Clear 48 8.7 38 3.5 70 70 SSW 8 13 30.42 1030 10 16.0934 0 0
3:15 am 03:15 Clear 46 7.8 38 3.4 74 74 S 7 11 30.42 1030 10 16.0934 0 0
3:35 am 03:35 Clear 47 8.3 38 3.5 72 72 SSW 3 6 30.42 1030 10 16.0934 0 0
3:55 am 03:55 Clear 46 7.8 38 3.5 74 74 S 3 6 30.42 1030 10 16.0934 0 0
4:15 am 04:15 Clear 46 7.6 39 4 78 78 S 6 9 30.42 1030 10 16.0934 0 0
4:35 am 04:35 Clear 48 8.8 40 4.3 74 74 S 7 11 30.42 1030 10 16.0934 0 0
4:55 am 04:55 Clear 48 8.7 40 4.2 74 74 S 6 9 30.42 1030 10 16.0934 0 0
5:15 am 05:15 Clear 48 8.7 39 4.1 73 73 S 5 7 30.42 1030 10 16.0934 0 0
5:35 am 05:35 Clear 49 9.2 40 4.5 73 73 S 5 7 30.42 1030 10 16.0934 0 0
5:55 am 05:55 Mostly Cloudy 49 9.3 40 4.7 73 73 S 7 11 30.42 1030 10 16.0934 0 0
6:15 am 06:15 Partly Cloudy 49 9.3 40 4.5 72 72 S 7 11 30.42 1030 10 16.0934 0 0
6:35 am 06:35 Clear 49 9.2 40 4.5 73 73 S 6 9 30.42 1030 10 16.0934 0 0
6:55 am 06:55 Clear 48 9 40 4.5 74 74 S 7 11 30.42 1030 10 16.0934 0 0
7:15 am 07:15 Clear 49 9.3 40 4.6 73 73 S 9 15 30.42 1030 10 16.0934 0 0
7:35 am 07:35 Clear 49 9.2 40 4.5 73 73 S 9 15 30.42 1030 10 16.0934 0 0
7:55 am 07:55 Sunny 47 8.3 40 4.2 76 76 S 7 11 30.42 1030 10 16.0934 0 0
8:15 am 08:15 Sunny 47 8.1 40 4.3 77 77 S 7 11 30.42 1030 10 16.0934 0 0
8:35 am 08:35 Sunny 46 7.7 40 4.2 79 79 S 7 11 30.42 1030 10 16.0934 0 0
8:55 am 08:55 Sunny 49 9.2 41 4.8 74 74 S 7 11 30.42 1030 10 16.0934 0 0
9:15 am 09:15 Sunny 51 10.5 42 5.3 70 70 S 8 13 30.39 1029 10 16.0934 0 0
9:35 am 09:35 Sunny 53 11.6 41 5.1 65 65 S 10 17 30.39 1029 10 16.0934 0 0
9:55 am 09:55 Sunny 55 12.6 42 5.4 62 62 S 12 19 30.39 1029 10 16.0934 0 0
10:15 am 10:15 Sunny 57 13.9 42 5.3 56 56 S 15 24 30.36 1028 10 16.0934 0 0
10:35 am 10:35 Sunny 59 14.8 42 5.3 53 53 S 12 19 30.33 1027 10 16.0934 0 0
10:55 am 10:55 Sunny 60 15.8 42 5.8 52 52 S 14 22 30.33 1027 10 16.0934 0 0
11:15 am 11:15 Partly Cloudy 58 14.7 42 5.8 55 55 S 10 17 30.33 1027 10 16.0934 0 0
11:35 am 11:35 Mostly Cloudy 60 15.5 42 5.6 52 52 SSW 13 20 30.33 1027 10 16.0934 0 0
11:55 am 11:55 Cloudy 60 15.5 42 5.5 52 52 SSW 14 22 30.33 1027 10 16.0934 0 0
12:15 pm 12:15 Cloudy 61 16 43 5.9 51 51 SSW 16 26 30.33 1027 10 16.0934 0 0
12:35 pm 12:35 Cloudy 63 17.3 43 6.1 48 48 SSW 18 30 30.27 1025 10 16.0934 0 0
12:55 pm 12:55 Mostly Cloudy 65 18.6 43 6 44 44 SSW 20 31 30.27 1025 10 16.0934 0 0
1:15 pm 13:15 Partly Cloudy 66 19 42 5.8 42 42 S 21 33 30.24 1024 10 16.0934 0 0
1:35 pm 13:35 Sunny 66 18.9 43 6 43 43 S 20 31 30.24 1024 10 16.0934 0 0
1:55 pm 13:55 Mostly Cloudy 67 19.2 42 5.7 41 41 S 22 35 30.18 1022 10 16.0934 0 0
2:15 pm 14:15 Mostly Cloudy 66 19 39 4.1 37 37 S 22 35 30.18 1022 10 16.0934 0 0
2:35 pm 14:35 Partly Cloudy 66 19 41 5.1 40 40 SSW 22 35 30.18 1022 10 16.0934 0 0
2:55 pm 14:55 Sunny 65 18.5 40 4.6 40 40 SSW 21 33 30.21 1023 10 16.0934 0 0
3:15 pm 15:15 Sunny 64 18 41 5 43 43 S 17 28 30.18 1022 10 16.0934 0 0
3:35 pm 15:35 Sunny 64 17.5 40 4.6 43 43 SSW 20 31 30.18 1022 10 16.0934 0 0
3:55 pm 15:55 Mostly Cloudy 63 17.2 42 5.7 47 47 SSW 20 31 30.18 1022 10 16.0934 0 0
4:15 pm 16:15 Cloudy 63 17.1 43 5.9 48 48 SSW 20 31 30.18 1022 10 16.0934 0 0
4:35 pm 16:35 Mostly Cloudy with Drizzle 59 15.1 45 7 59 59 SW 23 37 30.21 1023 10 16.0934 0 0
4:55 pm 16:55 Cloudy with Light Rain 56 13.5 47 8.1 70 70 SW 17 28 30.21 1023 10 16.0934 0 0
5:15 pm 17:15 Cloudy with Light Rain 55 12.6 48 8.8 78 78 SW 16 26 30.21 1023 10 16.0934 0 0
5:35 pm 17:35 Mostly Cloudy 56 13.1 49 9.5 79 79 SSW 17 28 30.18 1022 10 16.0934 0 0
5:55 pm 17:55 Mostly Cloudy with Light Rain 56 13.1 49 9.3 78 78 SW 14 22 30.18 1022 10 16.0934 0 0
6:15 pm 18:15 Mostly Cloudy 55 12.5 49 9.3 81 81 SW 18 30 30.18 1022 10 16.0934 0 0
6:35 pm 18:35 Cloudy 54 12.3 49 9.5 83 83 SW 15 24 30.18 1022 10 16.0934 0 0
6:55 pm 18:55 Cloudy 54 12.3 49 9.6 84 84 SW 15 24 30.18 1022 10 16.0934 0 0
7:15 pm 19:15 Cloudy 54 12.2 50 9.8 85 85 SW 15 24 30.15 1021 10 16.0934 0 0
7:35 pm 19:35 Cloudy 54 12.3 50 9.9 85 85 SW 18 30 30.15 1021 10 16.0934 0 0
7:55 pm 19:55 Cloudy 55 12.6 49 9.3 80 80 SSW 17 28 30.15 1021 10 16.0934 0 0
8:15 pm 20:15 Cloudy 55 13 47 8.2 73 73 SSW 16 26 30.15 1021 10 16.0934 0 0
8:35 pm 20:35 Cloudy 55 12.6 47 8.5 76 76 S 17 28 30.15 1021 10 16.0934 0 0
8:55 pm 20:55 Cloudy 55 12.6 47 8.6 77 77 S 15 24 30.15 1021 10 16.0934 0 0
9:15 pm 21:15 Cloudy 55 12.6 47 8.6 77 77 S 13 20 30.15 1021 10 16.0934 0 0
9:35 pm 21:35 Cloudy 54 12.3 48 8.7 79 79 S 14 22 30.12 1020 10 16.0934 0 0
9:55 pm 21:55 Cloudy 54 12.3 48 8.8 79 79 S 14 22 30.12 1020 10 16.0934 0 0
10:15 pm 22:15 Cloudy 55 12.5 47 8.4 76 76 S 13 20 30.12 1020 10 16.0934 0 0
10:35 pm 22:35 Cloudy 55 12.8 46 7.7 71 71 SSW 13 20 30.12 1020 10 16.0934 0 0
10:55 pm 22:55 Cloudy 55 12.7 45 7.4 70 70 SSW 13 20 30.12 1020 10 16.0934 0 0
11:15 pm 23:15 Cloudy 55 12.5 45 7.4 71 71 SSW 14 22 30.12 1020 10 16.0934 0 0
11:35 pm 23:35 Cloudy 54 12.2 46 7.7 74 74 SSW 10 17 30.12 1020 10 16.0934 0 0
11:55 pm 23:55 Cloudy 53 11.8 46 7.8 77 77 SSW 9 15 30.12 1020 10 16.0934 0 0

Powered by AerisWeather